Torna al catalogo

FENGYUN 1C DEB

AttivoSSO
NORAD 30679·DEBRIS·🇨🇳 China

Lanciato May 10, 1999 da Taiyuan Satellite Launch Center

Loading…

Prossimi Passaggi (prossime 24 ore)

TLE

AggiornatoSource: Space-Track

Epoca: Sep 13, 2026, 19:03 UTC

1 30679U 99025AQM 26256.79443316  .00000310  00000-0  30385-3 0  9994
2 30679  99.3527 310.8059 0171694  72.1467 356.0220 13.80051444983135

Traccia FENGYUN 1C DEB in tempo reale con AllMySat

Download on the App Store